Content
SEND FEEDBACK

Daily
Averages
Monthly
Summary
United Kingdom

LONDON, ENGLAND


Home > Europe > United Kingdom > England
Elevation: 203 feet     Latitude: 51 09N     Longitude: 000 11W

WEATHER
 
SELECT A DAY
Number of Records: 294,441;   Date Range: 7/1/96 - 9/14/14
 
SHARE

PRINT THIS DATA

[ ← Previous Day ]
WEATHER ALMANAC - JULY 3, 2013
[ Next Day → ]
[ °C ]   °F
Weather ElementAverageHighLow
Temperature61.6 °F68 °F (1:50 pm)57.2 °F (12:50 am)
Dewpoint55.7 °F57.2 °F (5:20 am)51.8 °F (11:50 pm)
Humidity81.8 %100 % (5:20 am)60 % (5:20 pm)
Barometer29.80 in30.04 in (11:20 pm)29.62 in (3:50 am)
Wind Speed8.8 mph13.8 mph (9:20 am)
Weather ElementAverage
Visibility5.8 mi
Wind DirectionWSW (251.9 °)

Weather ElementTotal
Precipitation---
Heating Degree Days2.4 (Base 65)
Growing Degree Days12.6 (Base 50)
Averaged from 47 records on July 3, 2013
WEATHER CONDITIONS BREAKOUT
WIND DIRECTION BREAKOUT
WEATHER BY HOUR - JULY 3, 2013
[ °C ]   °F
Local TimeTemperatureDewpointHumidityBarometerVisibilityWind DirectionWind SpeedGust SpeedPrecipitationEventsConditions
12:50 AM57.2 °F55.4 °F94 %29.68 in5.6 miSSW (210°)9.2 mphLight Drizzle
1:20 AM57.2 °F55.4 °F94 %29.68 in6.2 miSSW (200°)10.4 mphMostly Cloudy
1:50 AM57.2 °F55.4 °F94 %29.68 in3.1 miSSW (210°)8.1 mphLight Drizzle
2:20 AM57.2 °F55.4 °F94 %29.65 in4.3 miSSW (210°)9.2 mphRainLight Rain
2:50 AM57.2 °F55.4 °F94 %29.65 in4.3 miSSW (200°)8.1 mphRainLight Rain
3:20 AM57.2 °F55.4 °F94 %29.65 in6.2 miSSW (210°)8.1 mphRainLight Rain
3:50 AM57.2 °F55.4 °F94 %29.62 inSSW (210°)8.1 mphLight Drizzle
4:20 AM57.2 °F55.4 °F94 %29.62 in4.3 miSW (230°)6.9 mphMostly Cloudy
4:50 AM57.2 °F55.4 °F94 %29.62 in6.2 miSW (230°)8.1 mphMostly Cloudy
5:20 AM57.2 °F57.2 °F100 %29.65 in5.0 miSW (230°)6.9 mphMostly Cloudy
5:50 AM57.2 °F57.2 °F100 %29.65 in3.7 miSW (230°)6.9 mphMostly Cloudy
6:20 AM57.2 °F57.2 °F100 %29.65 in5.0 miSW (220°)4.6 mphMostly Cloudy
6:50 AM57.2 °F57.2 °F100 %29.65 in5.0 miSW (230°)5.8 mphMostly Cloudy
7:20 AM59.0 °F57.2 °F94 %29.68 in6.2 miSW (230°)4.6 mphMostly Cloudy
7:50 AM59.0 °F57.2 °F94 %29.68 in6.2 miSW (220°)5.8 mphMostly Cloudy
8:20 AM59.0 °F57.2 °F94 %29.68 in6.2 miSW (230°)8.1 mphMostly Cloudy
8:50 AM60.8 °F57.2 °F88 %29.71 in6.2 miWSW (250°)9.2 mphMostly Cloudy
9:20 AM60.8 °F55.4 °F82 %29.74 in6.2 miWest (270°)13.8 mphMostly Cloudy
9:50 AM60.8 °F57.2 °F88 %29.74 in6.2 miWest (270°)9.2 mphMostly Cloudy
10:20 AM60.8 °F57.2 °F88 %29.74 in6.2 miWest (270°)13.8 mphMostly Cloudy
10:50 AM60.8 °F55.4 °F82 %29.77 in6.2 miWest (270°)11.5 mphMostly Cloudy
11:20 AM62.6 °F57.2 °F82 %29.77 in6.2 miWest (260°)10.4 mphMostly Cloudy
11:50 AM62.6 °F57.2 °F82 %29.77 in6.2 miWest (260°)8.1 mphMostly Cloudy
12:20 PM62.6 °F57.2 °F82 %29.77 in6.2 miWest (260°)10.4 mphMostly Cloudy
12:50 PM62.6 °F57.2 °F82 %29.80 in6.2 miWest (270°)11.5 mphMostly Cloudy
1:20 PM66.2 °F57.2 °F73 %29.80 in6.2 miWest (280°)9.2 mphScattered Clouds
1:50 PM68.0 °F57.2 °F68 %29.83 in6.2 miWest (280°)10.4 mphScattered Clouds
2:20 PM68.0 °F57.2 °F68 %29.83 in6.2 miWNW (290°)9.2 mphScattered Clouds
2:50 PM66.2 °F57.2 °F73 %29.83 in6.2 miWest (260°)11.5 mphScattered Clouds
3:20 PM68.0 °F55.4 °F64 %29.86 in6.2 miWest (280°)12.7 mphScattered Clouds
3:50 PM68.0 °F55.4 °F64 %29.86 in6.2 miWNW (290°)10.4 mphScattered Clouds
4:20 PM68.0 °F55.4 °F64 %29.86 in6.2 miWest (280°)11.5 mphScattered Clouds
4:50 PM68.0 °F55.4 °F64 %29.89 in6.2 miWNW (300°)13.8 mphMostly Cloudy
5:20 PM68.0 °F53.6 °F60 %29.89 in6.2 miWest (280°)12.7 mphMostly Cloudy
5:50 PM68.0 °F55.4 °F64 %29.89 in6.2 miWNW (290°)11.5 mphMostly Cloudy
6:20 PM66.2 °F55.4 °F68 %29.92 in6.2 miWest (280°)13.8 mphScattered Clouds
6:50 PM66.2 °F53.6 °F64 %29.92 in6.2 miWNW (290°)9.2 mphScattered Clouds
7:20 PM66.2 °F55.4 °F68 %29.95 in6.2 miWNW (290°)9.2 mphScattered Clouds
7:50 PM66.2 °F53.6 °F64 %29.95 in6.2 miWNW (290°)10.4 mphScattered Clouds
8:20 PM64.4 °F53.6 °F68 %29.98 in6.2 miWest (270°)6.9 mphScattered Clouds
8:50 PM62.6 °F55.4 °F77 %29.98 in6.2 miWest (260°)6.9 mphMostly Cloudy
9:20 PM62.6 °F53.6 °F72 %29.98 in6.2 miWest (270°)9.2 mphMostly Cloudy
9:50 PM60.8 °F53.6 °F77 %30.01 in6.2 miWSW (240°)4.6 mphScattered Clouds
10:20 PM59.0 °F53.6 °F82 %30.01 in6.2 miWSW (240°)3.5 mphScattered Clouds
10:50 PM57.2 °F53.6 °F88 %30.01 in6.2 miSW (230°)3.5 mphPartly Cloudy
11:20 PM57.2 °F53.6 °F88 %30.04 inWSW (240°)3.5 mphClear
11:50 PM57.2 °F51.8 °F82 %30.04 inSW (230°)4.6 mphClear
Hourly data recorded from EGKK, located miles away from London, England







STORIES FROM OUR PARTNERS